[[{"header":{"parameterUnit":"m.s-1","parameterCategory":1,"la1":30.2991,"la2":30.254,"lo1":-89.0895,"lo2":-89.0444,"dy":0.0017,"dx":0.0017,"nx":28,"ny":28,"refTime":"2025-11-12T03:00:00:Z","depth":0,"parameterNumber":2,"parameterNumberName":"U-component_of_WINDS"},"data":[0,0,0,0,0,0,0,0,0,0,0,0,0,0,0,0,0,0,0,0,0,0,0,0,0,0,0,0,0,0,0,0,0,0,0,0,0,0,0,0,0,0,0,0,0,0,0,0,0,0,0,0,0,0,0,0,0,0,3.4891,3.4892,0,3.4982,3.4983,3.4984,3.495,3.4948,3.4946,3.4944,3.5033,3.5037,3.5041,0,0,0,0,0,0,0,0,0,0,0,0,0,3.4682,3.4686,3.4891,3.4892,3.4894,3.4982,3.4983,3.4984,3.4951,3.4948,3.4946,3.4943,3.5032,3.5037,3.5042,0,0,0,0,0,0,0,0,0,0,0,0,0,3.4773,3.4687,3.4891,3.4887,3.4888,3.4982,3.4983,3.4985,3.4951,3.4948,3.4945,3.4942,3.503,3.5036,3.5042,3.5144,0,0,3.5062,3.5065,0,0,0,0,0,0,0,0,3.4767,3.478,3.4887,3.4888,3.4889,3.4952,3.4942,3.5038,3.4952,3.4927,3.4944,3.494,3.5008,3.5016,3.504,3.5148,3.5152,3.5063,3.5067,3.5069,3.5071,0,0,0,0,0,0,0,3.4761,3.4776,3.4927,3.4888,3.4889,3.4879,3.4888,3.496,3.4984,3.4929,3.4927,3.4938,3.5008,3.5034,3.5042,3.5153,3.5063,3.5068,3.5072,3.5075,3.5344,3.5347,0,0,0,0,0,0,3.4755,3.4771,3.4924,3.493,3.4819,3.4885,3.4896,3.4935,3.4983,3.4987,3.4941,3.4936,3.5024,3.5034,3.5045,3.5162,3.5069,3.5075,3.5079,3.5341,3.5345,3.5348,0,0,0,0,0,0,3.4751,3.4769,3.492,3.485,3.4868,3.4892,3.4936,3.4938,3.4964,3.4992,3.4995,3.4963,3.5022,3.5036,3.5119,3.5165,3.5078,3.5084,3.5337,3.5342,3.5346,3.5402,0,0,0,0,0,0,3.4745,3.4768,3.4808,3.4851,3.4872,3.4995,3.4939,3.4942,3.4975,3.497,3.5014,3.5018,3.5021,3.5109,3.5125,3.5172,3.5089,3.5333,3.5339,3.5345,3.5396,3.5408,3.5418,0,0,0,0,0,3.4738,3.4821,3.4811,3.4829,3.4924,3.4998,3.501,3.5013,3.4979,3.5019,3.5036,3.5016,3.5159,3.5118,3.5136,3.5186,3.533,3.5337,3.5344,3.5391,3.5405,3.5418,0,0,0,0,0,0,3.4782,3.4826,3.4816,3.4915,3.4953,3.4992,3.5042,3.5029,3.5076,3.5069,3.507,3.508,3.5164,3.5184,3.5138,3.5284,3.5239,3.525,3.5268,3.5282,3.5293,3.5285,3.5094,0,0,0,0,0,3.4804,3.4862,3.4897,3.4981,3.5001,3.5018,3.5051,3.505,3.5088,3.5104,3.5127,3.5164,3.5216,3.5251,3.5301,3.5399,3.5406,3.5442,3.5453,3.5463,3.5471,3.5519,3.5535,3.5373,3.5372,3.5372,0,0,3.4848,3.488,3.4916,3.4991,3.502,3.5077,3.5032,3.5096,3.5137,3.5113,3.5192,3.5211,3.5251,3.5341,3.5382,3.536,3.5518,3.5472,3.5479,3.5483,3.5528,3.5544,3.5557,3.5378,3.5377,3.5376,0,0,3.4958,3.499,3.5061,3.5091,3.5136,3.5146,3.5164,3.5204,3.5215,3.5295,3.5277,3.5326,3.5418,3.5446,3.5472,3.559,3.5572,3.5607,3.5664,3.5711,3.5724,3.5735,3.5772,3.5786,3.5616,3.5616,3.5616,0,3.5007,3.5095,3.5099,3.5163,3.5194,3.5176,3.5246,3.5275,3.5333,3.5354,3.5329,3.5441,3.5468,3.5561,3.559,3.5614,3.563,3.56,3.5722,3.5733,3.5744,3.5779,3.5794,3.562,3.5619,3.5619,3.5618,0,3.515,3.5211,3.5263,3.532,3.5357,3.5425,3.5436,3.5474,3.5469,3.5481,3.556,3.5592,3.5645,3.5669,3.5665,3.5761,3.5745,3.5722,3.5675,3.5763,3.5796,3.581,3.5625,3.5623,3.5622,3.5621,0,0,3.5289,3.5346,3.5365,3.5388,3.5436,3.5482,3.5547,3.56,3.563,3.5671,3.5722,3.5799,3.5776,3.5806,3.5806,3.5848,3.5933,3.5819,3.5819,3.5835,3.6035,3.6049,3.6065,3.5923,3.5926,3.5928,3.603,0,3.5399,3.5513,3.5518,3.5621,3.5675,3.5657,3.5713,3.5746,3.576,3.5805,3.5819,3.5872,3.5841,3.5858,3.5899,3.5914,3.5973,3.5908,3.5967,3.5969,3.5953,3.6083,3.6099,3.6194,3.6043,3.6046,3.6047,0,3.5542,3.5586,3.5695,3.5731,3.5754,3.5804,3.5851,3.5897,3.5933,3.5939,3.5972,3.5964,3.6027,3.5982,3.6065,3.6021,3.6046,3.6057,3.606,3.6062,3.601,3.6084,3.6225,3.6237,3.6069,3.6067,3.6065,0,3.5626,3.5714,3.5789,3.581,3.5856,3.589,3.5911,3.5944,3.5975,3.6016,3.6035,3.6083,3.6108,3.6145,3.6149,3.6116,3.6232,3.6188,3.6235,3.6235,3.6257,3.6255,3.6399,3.6281,3.6281,3.628,3.628,0,3.5745,3.5811,3.5827,3.5872,3.5944,3.5948,3.6019,3.6036,3.6066,3.6112,3.6101,3.6145,3.615,3.6194,3.6198,3.6264,3.6277,3.6281,3.6281,3.628,3.6279,3.6293,3.6285,3.6284,3.6283,3.6282,3.6282,0,3.585,3.5864,3.5944,3.598,3.599,3.6041,3.6071,3.6113,3.6125,3.6184,3.6197,3.6215,3.6266,3.6275,3.6336,3.6338,3.6416,3.6411,3.6404,3.6401,3.6447,3.644,3.6601,3.662,3.6494,3.6495,3.6496,0,3.5923,3.5973,3.6015,3.6045,3.6067,3.6117,3.6148,3.6154,3.6186,3.6229,3.6265,3.6315,3.6355,3.6437,3.6454,3.6499,3.6492,3.6545,3.6499,3.6495,3.6487,3.6482,3.6485,3.6553,3.6554,3.6556,3.6556,0,3.605,3.6054,3.61,3.6147,3.6184,3.6222,3.6257,3.6283,3.6292,3.6328,3.6381,3.6412,3.6473,3.6521,3.6565,3.6583,3.657,3.6572,3.6584,3.6581,3.6573,3.6573,3.6423,3.6567,3.6566,3.6565,3.6565,3.6564,3.6138,3.618,3.6215,3.6265,3.6292,3.6325,3.6365,3.6381,3.6426,3.6476,3.6476,3.6532,3.6564,3.6622,3.6643,3.6685,3.6668,3.6687,3.6691,3.6695,3.6697,3.657,3.6694,3.6694,3.6694,3.6693,3.6693,0,3.626,3.6281,3.6328,3.6377,3.6415,3.6402,3.644,3.6472,3.6522,3.6553,3.6593,3.665,3.6697,3.6717,3.6762,3.6791,3.6786,3.6802,3.6798,3.6801,3.6712,3.6695,3.6806,3.6806,3.6806,3.6805,3.6805,3.6805,3.6327,3.6396,3.6404,3.6484,3.6505,3.656,3.6582,3.6611,3.6635,3.6701,3.6739,3.6753,3.6779,3.6825,3.6865,3.687,3.6885,3.6903,3.6904,3.682,3.6808,3.6797,3.6781,3.6908,3.6908,3.6989,3.699,3.6991]},{"header":{"parameterUnit":"m.s-1","parameterCategory":1,"la1":30.2991,"la2":30.254,"lo1":-89.0895,"lo2":-89.0444,"dy":0.0017,"dx":0.0017,"nx":28,"ny":28,"refTime":"2025-11-12T03:00:00:Z","depth":0,"parameterNumber":3,"parameterNumberName":"V-component_of_WINDS"},"data":[0,0,0,0,0,0,0,0,0,0,0,0,0,0,0,0,0,0,0,0,0,0,0,0,0,0,0,0,0,0,0,0,0,0,0,0,0,0,0,0,0,0,0,0,0,0,0,0,0,0,0,0,0,0,0,0,0,0,4.1532,4.1533,0,4.1627,4.1628,4.1629,4.1574,4.1572,4.1569,4.1567,4.166,4.1665,4.167,0,0,0,0,0,0,0,0,0,0,0,0,0,4.1297,4.1301,4.1532,4.1533,4.1534,4.1627,4.1628,4.163,4.1575,4.1572,4.1568,4.1565,4.1659,4.1665,4.1671,0,0,0,0,0,0,0,0,0,0,0,0,0,4.1396,4.1303,4.1532,4.1518,4.1518,4.1627,4.1628,4.163,4.1576,4.1572,4.1568,4.1564,4.1657,4.1664,4.1671,4.1798,0,0,4.1694,4.1697,0,0,0,0,0,0,0,0,4.1391,4.1405,4.1519,4.1519,4.1519,4.1585,4.158,4.1686,4.1577,4.1554,4.1566,4.1562,4.1638,4.1647,4.1673,4.1802,4.1806,4.1695,4.1699,4.1703,4.1705,0,0,0,0,0,0,0,4.1384,4.14,4.1569,4.1521,4.1521,4.1505,4.1515,4.16,4.1617,4.1555,4.1552,4.1564,4.1637,4.1666,4.1675,4.1807,4.1695,4.1701,4.1706,4.1709,4.2039,4.2043,0,0,0,0,0,0,4.1378,4.1395,4.1566,4.1572,4.1444,4.1513,4.1524,4.1568,4.1616,4.162,4.1567,4.1561,4.1656,4.1667,4.1678,4.1826,4.1703,4.171,4.1714,4.2035,4.204,4.2044,0,0,0,0,0,0,4.1374,4.1394,4.1563,4.1483,4.1503,4.1521,4.1571,4.1572,4.1601,4.1625,4.1627,4.1594,4.1653,4.1668,4.1767,4.1828,4.1713,4.172,4.203,4.2036,4.2042,4.2124,0,0,0,0,0,0,4.1367,4.1393,4.1443,4.1484,4.1508,4.1652,4.1575,4.1577,4.1614,4.1607,4.1651,4.1654,4.1651,4.1757,4.1775,4.1837,4.1726,4.2024,4.2033,4.204,4.2116,4.2132,4.2147,0,0,0,0,0,4.1359,4.1462,4.1446,4.1467,4.157,4.1656,4.1669,4.1664,4.1619,4.1668,4.1683,4.1653,4.1819,4.1767,4.1787,4.1852,4.202,4.203,4.204,4.2109,4.2129,4.2146,0,0,0,0,0,0,4.1427,4.1468,4.145,4.157,4.161,4.1647,4.1708,4.1687,4.174,4.173,4.1721,4.1731,4.1834,4.1854,4.1795,4.1974,4.1912,4.1926,4.1958,4.1978,4.1993,4.1985,4.1732,0,0,0,0,0,4.1456,4.1524,4.1555,4.1658,4.1679,4.169,4.1728,4.172,4.1761,4.1777,4.18,4.1839,4.19,4.194,4.1998,4.2119,4.2125,4.2173,4.2188,4.2201,4.2212,4.2273,4.2294,4.2076,4.2076,4.2076,0,0,4.1517,4.1547,4.1591,4.1672,4.1703,4.177,4.1705,4.1781,4.183,4.1788,4.1883,4.1901,4.1944,4.2054,4.2103,4.2073,4.2274,4.2213,4.2223,4.2227,4.2285,4.2306,4.2324,4.2083,4.2081,4.208,0,0,4.1661,4.1693,4.178,4.1811,4.1858,4.1864,4.1885,4.1925,4.1935,4.203,4.1999,4.2057,4.2163,4.2193,4.2223,4.2376,4.2348,4.2395,4.2474,4.2534,4.2551,4.2566,4.2617,4.2635,4.2406,4.2407,4.2407,0,4.1731,4.1833,4.1828,4.1905,4.194,4.1906,4.1992,4.2022,4.2085,4.2108,4.2074,4.2203,4.223,4.2345,4.2381,4.2408,4.2429,4.2389,4.2549,4.2564,4.2578,4.2626,4.2646,4.2412,4.2411,4.2411,4.241,0,4.1914,4.1985,4.205,4.2111,4.2153,4.2235,4.2239,4.2282,4.2271,4.228,4.2375,4.2405,4.2467,4.2494,4.2484,4.2606,4.2585,4.255,4.2487,4.2604,4.2649,4.2668,4.2419,4.2417,4.2416,4.2414,0,0,4.2105,4.216,4.2183,4.2209,4.2256,4.231,4.2388,4.2449,4.2484,4.2528,4.2591,4.268,4.2647,4.268,4.2673,4.2726,4.284,4.2684,4.2684,4.2709,4.2972,4.2996,4.3018,4.2823,4.2826,4.2829,4.2967,0,4.225,4.2388,4.2383,4.251,4.2574,4.2541,4.2608,4.2643,4.2653,4.2707,4.2717,4.2779,4.2733,4.2752,4.2803,4.2815,4.2892,4.2806,4.2878,4.2881,4.2866,4.3042,4.3069,4.3197,4.2985,4.2988,4.299,0,4.2438,4.2487,4.2621,4.2655,4.2681,4.2743,4.2795,4.2848,4.2886,4.2889,4.2925,4.2908,4.2984,4.292,4.3023,4.2964,4.2993,4.3003,4.3008,4.3013,4.2941,4.3048,4.3239,4.3257,4.3019,4.3016,4.3014,0,4.2559,4.2659,4.2751,4.2774,4.2818,4.286,4.288,4.2914,4.2949,4.2995,4.3017,4.3071,4.31,4.3141,4.3138,4.3093,4.3241,4.3178,4.3243,4.3243,4.3274,4.3272,4.3469,4.3298,4.3297,4.3297,4.3297,0,4.272,4.2802,4.2805,4.2862,4.2951,4.2944,4.3033,4.3048,4.3078,4.3134,4.3109,4.3162,4.3156,4.3209,4.3207,4.329,4.3304,4.3307,4.3304,4.3307,4.3307,4.3325,4.3315,4.3302,4.3301,4.33,4.3299,0,4.287,4.2876,4.2974,4.3006,4.3016,4.308,4.3107,4.3159,4.3166,4.3237,4.3254,4.3264,4.3325,4.3326,4.3396,4.3394,4.3494,4.3484,4.3482,4.3479,4.3543,4.3535,4.3756,4.3783,4.3597,4.3599,4.36,0,4.2972,4.3034,4.3072,4.3109,4.3131,4.319,4.3225,4.322,4.3257,4.3303,4.3348,4.3407,4.3453,4.355,4.3563,4.3615,4.3603,4.3677,4.3611,4.361,4.36,4.3595,4.36,4.3689,4.3691,4.3693,4.3694,0,4.3149,4.3148,4.3201,4.3254,4.3297,4.3338,4.3377,4.3407,4.3405,4.3448,4.351,4.3546,4.3616,4.3672,4.3722,4.374,4.3716,4.3715,4.3732,4.3735,4.373,4.373,4.3514,4.371,4.3708,4.3707,4.3706,4.3706,4.3276,4.3328,4.3362,4.3421,4.3449,4.3484,4.3533,4.3546,4.3598,4.3654,4.3648,4.3715,4.3747,4.3812,4.3834,4.3884,4.3859,4.3884,4.389,4.3896,4.3901,4.3724,4.3894,4.3893,4.3893,4.3893,4.3892,0,4.3449,4.3469,4.3523,4.3576,4.3621,4.3596,4.3636,4.3675,4.3735,4.3768,4.3813,4.3881,4.3936,4.3952,4.4003,4.4041,4.4031,4.4054,4.405,4.4054,4.3923,4.3902,4.4061,4.4061,4.4061,4.4061,4.4061,4.4061,4.3544,4.363,4.3633,4.3731,4.3749,4.3816,4.384,4.3872,4.3897,4.3975,4.402,4.4031,4.4055,4.4108,4.4156,4.4159,4.4177,4.4205,4.4203,4.4081,4.4063,4.4047,4.4027,4.421,4.421,4.4329,4.433,4.4331]}]]